This demonstration page uses our WeatherBlox Daily Observations layout. Learn more.

Left ArrowRight Arrow

40.92945, -100.16068

Hourly Observations for February 24, 2022

Temp ( °F °C ) Dew Point ( °F °C ) Humidity (%) Winds ( mph kmh ) Pressure ( in mb ) Visibility ( mi km ) Precip ( " mm )
12:15 am 00:15 Clear -1 -18.3 -9 -23 67 67 ENE 5 7 30.65 1038 10 16 0.00 0.00
12:35 am 00:35 Clear -1 -18.5 -9 -22.9 69 69 ENE 6 9 30.64 1038 10 16 0.00 0.00
12:55 am 00:55 Clear -1 -18.6 -9 -23 69 69 ENE 5 7 30.63 1037 10 16 0.00 0.00
1:15 am 01:15 Clear -1 -18.5 -9 -22.6 70 70 ENE 5 7 30.63 1037 10 16 0.00 0.00
1:35 am 01:35 Clear 0 -17.9 -8 -22.3 69 69 NE 7 11 30.61 1037 10 16 0.00 0.00
1:55 am 01:55 Partly Cloudy 0 -17.6 -8 -22.2 68 68 ENE 9 15 30.59 1036 10 16 0.00 0.00
2:15 am 02:15 Cloudy 1 -17.2 -8 -22 66 66 E 8 13 30.58 1036 10 16 0.00 0.00
2:35 am 02:35 Cloudy with Light Snow 1 -17.2 -8 -22.1 66 66 E 7 11 30.58 1036 10 16 0.00 0.00
2:55 am 02:55 Cloudy with Light Snow 1 -17.3 -7 -21.5 70 70 E 7 11 30.57 1035 7 11 0.00 0.00
3:15 am 03:15 Cloudy with Light Snow 1 -17.1 -6 -21 72 72 E 6 9 30.58 1036 7 11 0.00 0.00
3:35 am 03:35 Cloudy 1 -17.1 -6 -21.1 71 71 E 7 11 30.58 1036 10 16 0.00 0.00
3:55 am 03:55 Cloudy 1 -17 -6 -21.1 71 71 E 7 11 30.58 1036 10 16 0.00 0.00
4:15 am 04:15 Mostly Cloudy 1 -17 -6 -21.1 71 71 ENE 8 13 30.57 1035 10 16 0.00 0.00
4:35 am 04:35 Partly Cloudy 1 -17.1 -6 -21.1 71 71 ENE 7 11 30.57 1035 10 16 0.00 0.00
4:55 am 04:55 Clear 1 -17.1 -6 -21 72 72 NE 7 11 30.56 1035 10 16 0.00 0.00
5:15 am 05:15 Clear 1 -17.1 -6 -21 72 72 ENE 8 13 30.55 1035 10 16 0.00 0.00
5:35 am 05:35 Partly Cloudy 1 -17.1 -6 -21 72 72 ENE 7 11 30.55 1035 10 16 0.00 0.00
5:55 am 05:55 Partly Cloudy 1 -17 -6 -20.9 72 72 ENE 6 9 30.56 1035 10 16 0.00 0.00
6:15 am 06:15 Partly Cloudy 1 -17 -6 -20.9 72 72 NE 7 11 30.55 1035 10 16 0.00 0.00
6:35 am 06:35 Mostly Cloudy 1 -17 -6 -20.9 72 72 ENE 6 9 30.55 1035 10 16 0.00 0.00
6:55 am 06:55 Cloudy 1 -17 -5 -20.7 73 73 ENE 6 9 30.55 1035 10 16 0.00 0.00
7:15 am 07:15 Cloudy 1 -17.1 -5 -20.7 74 74 NE 5 7 30.55 1035 10 16 0.00 0.00
7:35 am 07:35 Cloudy 1 -17.1 -5 -20.7 74 74 NNE 8 13 30.54 1034 10 16 0.00 0.00
7:55 am 07:55 Cloudy 1 -17 -5 -20.6 74 74 N 6 9 30.55 1035 10 16 0.00 0.00
8:15 am 08:15 Cloudy 1 -17 -5 -20.6 74 74 NE 8 13 30.55 1035 10 16 0.00 0.00
8:35 am 08:35 Cloudy 2 -16.7 -5 -20.5 73 73 NNE 7 11 30.56 1035 10 16 0.00 0.00
8:55 am 08:55 Cloudy 3 -16.1 -4 -20.1 72 72 NE 6 9 30.55 1035 10 16 0.00 0.00
9:15 am 09:15 Cloudy 4 -15.6 -4 -20.2 68 68 NE 7 11 30.53 1034 10 16 0.00 0.00
9:35 am 09:35 Partly Cloudy 5 -15.2 -5 -20.4 65 65 NE 5 7 30.53 1034 10 16 0.00 0.00
9:55 am 09:55 Partly Cloudy 6 -14.4 -5 -20.6 60 60 NNE 5 7 30.52 1034 10 16 0.00 0.00
10:15 am 10:15 Partly Cloudy 6 -14.5 -5 -20.8 59 59 E 6 9 30.52 1034 10 16 0.00 0.00
10:35 am 10:35 Mostly Cloudy 6 -14.2 -5 -20.6 59 59 N 3 6 30.52 1033 10 16 0.00 0.00
10:55 am 10:55 Mostly Cloudy 8 -13.6 -5 -20.7 55 55 N 6 9 30.51 1033 10 16 0.00 0.00
11:15 am 11:15 Cloudy 8 -13.5 -5 -20.4 56 56 NNE 5 7 30.50 1033 10 16 0.00 0.00
11:35 am 11:35 Cloudy 8 -13.3 -5 -20.3 56 56 Calm 30.50 1033 10 16 0.00 0.00
11:55 am 11:55 Cloudy 9 -12.6 -4 -19.8 55 55 NNW 3 6 30.48 1032 10 16 0.00 0.00
12:15 pm 12:15 Cloudy 10 -12 -3 -19.6 54 54 NE 7 11 30.46 1032 10 16 0.00 0.00
12:35 pm 12:35 Cloudy 11 -11.9 -4 -20 51 51 NNE 6 9 30.45 1031 10 16 0.00 0.00
12:55 pm 12:55 Mostly Cloudy 11 -11.6 -4 -19.9 51 51 N 6 9 30.44 1031 10 16 0.00 0.00
1:15 pm 13:15 Partly Cloudy 13 -10.5 -3 -19.5 48 48 NNW 3 6 30.42 1030 10 16 0.00 0.00
1:35 pm 13:35 Partly Cloudy 13 -10.8 -4 -19.8 48 48 WNW 8 13 30.41 1030 10 16 0.00 0.00
1:55 pm 13:55 Mostly Cloudy 14 -10 -3 -19.3 47 47 N 7 11 30.40 1030 10 16 0.00 0.00
2:15 pm 14:15 Cloudy 13 -10.7 -2 -19 51 51 NW 7 11 30.40 1029 7 11 0.00 0.00
2:35 pm 14:35 Cloudy with Light Snow 13 -10.4 2 -16.4 62 62 N 8 13 30.40 1029 3 5 0.00 0.00
2:55 pm 14:55 Cloudy with Haze 13 -10.8 4 -15.5 69 69 N 7 11 30.40 1029 3 4 0.00 0.00
3:15 pm 15:15 Cloudy with Haze 14 -10 4 -15.8 63 63 NNW 8 13 30.38 1029 5 8 0.00 0.00
3:35 pm 15:35 Cloudy 14 -10 2 -16.5 59 59 N 7 11 30.39 1029 10 16 0.00 0.00
3:55 pm 15:55 Cloudy 14 -9.9 1 -17.3 55 55 N 6 9 30.40 1029 10 16 0.00 0.00
4:15 pm 16:15 Cloudy 14 -10.1 2 -16.6 59 59 NW 5 7 30.41 1030 10 16 0.00 0.00
4:35 pm 16:35 Cloudy 15 -9.6 3 -16.2 59 59 NNW 8 13 30.42 1030 10 16 0.00 0.00
4:55 pm 16:55 Cloudy 15 -9.7 2 -16.9 56 56 NNW 3 6 30.42 1030 10 16 0.00 0.00
5:15 pm 17:15 Cloudy 14 -10 2 -16.5 59 59 N 7 11 30.42 1030 10 16 0.00 0.00
5:35 pm 17:35 Cloudy 13 -10.5 3 -16.2 63 63 NE 8 13 30.44 1031 10 16 0.00 0.00
5:55 pm 17:55 Mostly Cloudy 13 -10.5 3 -16.2 63 63 NE 7 11 30.45 1031 10 16 0.00 0.00
6:15 pm 18:15 Mostly Cloudy 12 -11.2 1 -17 63 63 NE 5 7 30.46 1031 10 16 0.00 0.00
6:35 pm 18:35 Cloudy 11 -11.5 1 -17.3 62 62 NE 3 6 30.47 1032 10 16 0.00 0.00
6:55 pm 18:55 Cloudy 11 -11.7 1 -17.3 63 63 Calm 30.48 1032 10 16 0.00 0.00
7:15 pm 19:15 Cloudy 11 -11.7 1 -17.2 64 64 Calm 30.49 1033 10 16 0.00 0.00
7:35 pm 19:35 Cloudy 10 -12 1 -17.5 64 64 Calm 30.51 1033 10 16 0.00 0.00
7:55 pm 19:55 Partly Cloudy 10 -12 1 -17.5 64 64 ENE 5 7 30.51 1033 10 16 0.00 0.00
8:15 pm 20:15 Clear 9 -12.8 0 -17.6 68 68 ENE 5 7 30.52 1034 10 16 0.00 0.00
8:35 pm 20:35 Clear 8 -13.6 -1 -18.1 69 69 E 5 7 30.53 1034 10 16 0.00 0.00
8:55 pm 20:55 Clear 6 -14.6 -3 -19.2 68 68 ENE 6 9 30.55 1035 10 16 0.00 0.00
9:15 pm 21:15 Clear 5 -14.8 -2 -18.8 72 72 Calm 30.56 1035 10 16 0.00 0.00
9:35 pm 21:35 Clear 3 -16 -3 -19.6 74 74 Calm 30.59 1036 10 16 0.00 0.00
9:55 pm 21:55 Clear 3 -15.9 -3 -19.7 73 73 Calm 30.60 1036 10 16 0.00 0.00
10:15 pm 22:15 Clear 2 -16.4 -3 -19.7 76 76 ENE 3 6 30.60 1036 10 16 0.00 0.00
10:35 pm 22:35 Clear 2 -16.8 -4 -20 76 76 ENE 3 6 30.61 1037 10 16 0.00 0.00
10:55 pm 22:55 Clear 1 -17.4 -5 -20.4 78 78 Calm 30.63 1037 10 16 0.00 0.00
11:15 pm 23:15 Clear 1 -17.3 -5 -20.3 78 78 Calm 30.63 1037 10 16 0.00 0.00
11:35 pm 23:35 Clear 0 -17.6 -5 -20.7 77 77 Calm 30.66 1038 10 16 0.00 0.00
11:55 pm 23:55 Clear -1 -18.5 -6 -21.3 79 79 Calm 30.66 1038 10 16 0.00 0.00

Powered by AerisWeather